Time_in_sec,Latitude,Longitude,Altitude,Nbsat_max_qualitysignal,Nbsat_locked,valid_data
1314270628.20555329,-0.00007263,0.00007623,162.30889893,0,0,0
1314270743.25014853,-0.00007513,0.00007203,-453.69210815,0,0,0
1314270743.30049610,-0.00007511,0.00007203,-453.99533081,0,0,0
1314270743.35360646,-0.00007513,0.00007203,-454.29846191,0,0,0
1314270743.40074921,-0.00007511,0.00007202,-454.60171509,0,0,0
1314270743.45257354,-0.00007513,0.00007202,-454.90487671,0,0,0
1314270743.50047064,-0.00007511,0.00007202,-455.20819092,0,0,0
1314270743.55006170,-0.00007513,0.00007202,-455.51141357,0,0,0
1314270743.60066962,-0.00007511,0.00007202,-455.81478882,0,0,0
1314270743.65258670,-0.00007513,0.00007202,-456.11807251,0,0,0
1314270743.70206451,-0.00007511,0.00007202,-456.42153931,0,0,0
1314270743.74948788,-0.00007513,0.00007202,-456.72491455,0,0,0
1314270743.80147195,-0.00007511,0.00007202,-457.02841187,0,0,0
1314270743.85253644,-0.00007513,0.00007202,-457.33181763,0,0,0
1314270743.90159678,-0.00007511,0.00007202,-457.63537598,0,0,0
1314270743.94961667,-0.00007513,0.00007202,-457.93887329,0,0,0
1314270744.00050068,-0.00007511,0.00007202,-458.24249268,0,0,0
1314270744.04946494,-0.00007513,0.00007202,-458.54605103,0,0,0
1314270744.10304880,-0.00007511,0.00007202,-458.84979248,0,0,0
1314270744.15353012,-0.00007513,0.00007202,-459.15341187,0,0,0
1314270744.20550060,-0.00007511,0.00007201,-459.45718384,0,0,0
1314270744.25248528,-0.00007513,0.00007201,-459.76086426,0,0,0
1314270744.30059171,-0.00007511,0.00007201,-460.06469727,0,0,0
1314270744.35244608,-0.00007513,0.00007201,-460.36849976,0,0,0
1314270744.40081406,-0.00007511,0.00007201,-460.67242432,0,0,0
1314270744.45258117,-0.00007513,0.00007201,-460.97625732,0,0,0
1314270744.50050426,-0.00007511,0.00007201,-461.28027344,0,0,0
1314270744.54950070,-0.00007513,0.00007201,-461.58419800,0,0,0
1314270744.60049963,-0.00007511,0.00007201,-461.88830566,0,0,0
1314270744.65375900,-0.00007513,0.00007201,-462.19235229,0,0,0
1314270744.70044732,-0.00007511,0.00007201,-462.49652100,0,0,0
1314270744.75247121,-0.00007513,0.00007201,-462.80062866,0,0,0
1314270744.80068612,-0.00007511,0.00007201,-463.10491943,0,0,0
1314270744.85259366,-0.00007513,0.00007201,-463.40914917,0,0,0
1314270744.90164876,-0.00007511,0.00007200,-463.71350098,0,0,0
1314270744.95259166,-0.00007513,0.00007201,-464.01779175,0,0,0
1314270745.00087571,-0.00007511,0.00007200,-464.32220459,0,0,0
1314270745.04962587,-0.00007513,0.00007200,-464.62655640,0,0,0
1314270745.10103488,-0.00007511,0.00007200,-464.93106079,0,0,0
1314270745.14950752,-0.00007513,0.00007200,-465.23544312,0,0,0
1314270745.20120764,-0.00007511,0.00007200,-465.53994751,0,0,0
1314270745.25259328,-0.00007513,0.00007200,-465.84436035,0,0,0
1314270745.30403924,-0.00007511,0.00007200,-466.14892578,0,0,0
1314270745.35260606,-0.00007513,0.00007200,-466.45343018,0,0,0
1314270745.40060806,-0.00007511,0.00007200,-466.75802612,0,0,0
1314270745.44949555,-0.00007513,0.00007200,-467.06259155,0,0,0
1314270745.50046396,-0.00007511,0.00007199,-467.36727905,0,0,0
1314270745.55651546,-0.00007513,0.00007200,-467.67187500,0,0,0
1314270745.60060549,-0.00007512,0.00007199,-467.97662354,0,0,0
1314270745.65259314,-0.00007513,0.00007200,-468.28131104,0,0,0
1314270745.70053458,-0.00007512,0.00007199,-468.58612061,0,0,0
1314270745.75246048,-0.00007513,0.00007199,-468.89086914,0,0,0
1314270745.80096889,-0.00007512,0.00007199,-469.19577026,0,0,0
1314270745.85244799,-0.00007513,0.00007199,-469.50061035,0,0,0
1314270745.90047669,-0.00007512,0.00007199,-469.80554199,0,0,0
1314270745.95023918,-0.00007513,0.00007199,-470.11041260,0,0,0
1314270746.00054002,-0.00007512,0.00007199,-470.41543579,0,0,0
1314270746.04959083,-0.00007513,0.00007199,-470.72036743,0,0,0
1314270746.10340643,-0.00007512,0.00007198,-471.02545166,0,0,0
1314270746.15422535,-0.00007513,0.00007199,-471.33044434,0,0,0
1314270746.20088148,-0.00007512,0.00007198,-471.63555908,0,0,0
1314270746.24967742,-0.00007513,0.00007199,-471.94058228,0,0,0
1314270746.30150938,-0.00007512,0.00007198,-472.24575806,0,0,0
1314270746.35245585,-0.00007514,0.00007199,-472.55087280,0,0,0
1314270746.40048003,-0.00007512,0.00007198,-472.85610962,0,0,0
1314270746.45259118,-0.00007514,0.00007198,-473.16128540,0,0,0
1314270746.50408173,-0.00007512,0.00007198,-473.46664429,0,0,0
1314270746.55360126,-0.00007514,0.00007198,-473.77188110,0,0,0
1314270746.60047317,-0.00007512,0.00007198,-474.07730103,0,0,0
1314270746.65249252,-0.00007514,0.00007198,-474.38262939,0,0,0
1314270746.70048404,-0.00007512,0.00007197,-474.68807983,0,0,0
1314270746.74963355,-0.00007514,0.00007198,-474.99343872,0,0,0
1314270746.80047774,-0.00007512,0.00007197,-475.29898071,0,0,0
1314270746.84946799,-0.00007514,0.00007198,-475.60443115,0,0,0
1314270746.90267968,-0.00007513,0.00007197,-475.91003418,0,0,0
1314270746.95258975,-0.00007514,0.00007198,-476.21554565,0,0,0
1314270747.00053716,-0.00007513,0.00007197,-476.52117920,0,0,0
1314270747.05246043,-0.00007514,0.00007197,-476.82678223,0,0,0
1314270747.10048962,-0.00007513,0.00007197,-477.13250732,0,0,0
1314270747.14950204,-0.00007514,0.00007197,-477.43817139,0,0,0
1314270747.20160365,-0.00007513,0.00007196,-477.74395752,0,0,0
1314270747.25361013,-0.00007514,0.00007197,-478.04965210,0,0,0
1314270747.30449581,-0.00007513,0.00007196,-478.35543823,0,0,0
1314270747.35360527,-0.00007515,0.00007197,-478.66119385,0,0,0
1314270747.40051246,-0.00007513,0.00007196,-478.96707153,0,0,0
1314270747.45248699,-0.00007515,0.00007197,-479.27285767,0,0,0
1314270747.50048780,-0.00007513,0.00007196,-479.57879639,0,0,0
1314270747.54974008,-0.00007515,0.00007197,-479.88467407,0,0,0
1314270747.60048199,-0.00007513,0.00007196,-480.19067383,0,0,0
1314270747.65246272,-0.00007515,0.00007197,-480.49661255,0,0,0
1314270747.70194674,-0.00007514,0.00007196,-480.80267334,0,0,0
1314270747.75284743,-0.00007515,0.00007196,-481.10867310,0,0,0
1314270747.80080080,-0.00007514,0.00007195,-481.41479492,0,0,0
1314270747.85244417,-0.00007515,0.00007196,-481.72088623,0,0,0
1314270747.90060091,-0.00007514,0.00007195,-482.02709961,0,0,0
1314270747.95244670,-0.00007515,0.00007196,-482.33322144,0,0,0
1314270748.00046396,-0.00007514,0.00007195,-482.63949585,0,0,0
1314270748.05260658,-0.00007516,0.00007196,-482.94570923,0,0,0
1314270748.10450220,-0.00007514,0.00007195,-483.25207520,0,0,0
1314270748.15252662,-0.00007516,0.00007196,-483.55834961,0,0,0
1314270748.20077515,-0.00007514,0.00007195,-483.86474609,0,0,0
1314270748.25245166,-0.00007516,0.00007196,-484.17108154,0,0,0
1314270748.30158949,-0.00007514,0.00007194,-484.47750854,0,0,0
1314270748.35256600,-0.00007516,0.00007195,-484.78387451,0,0,0
1314270748.40047717,-0.00007514,0.00007194,-485.09039307,0,0,0
1314270748.45448065,-0.00007516,0.00007195,-485.39685059,0,0,0
1314270748.50241446,-0.00007515,0.00007194,-485.70346069,0,0,0
1314270748.55006433,-0.00007516,0.00007195,-486.00997925,0,0,0
1314270748.60049033,-0.00007515,0.00007194,-486.31661987,0,0,0
1314270748.65246892,-0.00007516,0.00007195,-486.62322998,0,0,0
1314270748.70099378,-0.00007515,0.00007194,-486.92996216,0,0,0
1314270748.74955225,-0.00007516,0.00007195,-487.23663330,0,0,0
1314270748.80047703,-0.00007515,0.00007193,-487.54336548,0,0,0
1314270748.85254955,-0.00007516,0.00007195,-487.85006714,0,0,0
1314270748.90242672,-0.00007515,0.00007193,-488.15689087,0,0,0
1314270748.95354223,-0.00007517,0.00007194,-488.46362305,0,0,0
1314270749.00050044,-0.00007515,0.00007193,-488.77050781,0,0,0
1314270749.04953599,-0.00007517,0.00007194,-489.07730103,0,0,0
1314270749.10138535,-0.00007515,0.00007193,-489.38424683,0,0,0
1314270749.14960742,-0.00007517,0.00007194,-489.69113159,0,0,0
1314270749.20150685,-0.00007515,0.00007193,-489.99813843,0,0,0
1314270749.25414371,-0.00007517,0.00007194,-490.30508423,0,0,0
1314270749.30048418,-0.00007516,0.00007192,-490.61215210,0,0,0
1314270749.35360742,-0.00007517,0.00007194,-490.91915894,0,0,0
1314270749.40049171,-0.00007516,0.00007192,-491.22631836,0,0,0
1314270749.45246291,-0.00007517,0.00007193,-491.53338623,0,0,0
1314270749.50147700,-0.00007516,0.00007192,-491.84057617,0,0,0
1314270749.54985166,-0.00007517,0.00007193,-492.14773560,0,0,0
1314270749.60160279,-0.00007516,0.00007192,-492.45504761,0,0,0
1314270749.65353656,-0.00007518,0.00007193,-492.76226807,0,0,0
1314270749.70179248,-0.00007516,0.00007192,-493.06958008,0,0,0
1314270749.75256062,-0.00007518,0.00007193,-493.37683105,0,0,0
1314270749.80950665,-0.00007516,0.00007191,-493.68420410,0,0,0
1314270749.85245538,-0.00007518,0.00007193,-493.99154663,0,0,0
1314270749.90054297,-0.00007516,0.00007191,-494.29901123,0,0,0
1314270749.95246649,-0.00007518,0.00007193,-494.60641479,0,0,0
1314270750.00077081,-0.00007517,0.00007191,-494.91397095,0,0,0
1314270750.04953456,-0.00007518,0.00007192,-495.22143555,0,0,0
1314270750.10452676,-0.00007517,0.00007191,-495.52905273,0,0,0
1314270750.14949679,-0.00007518,0.00007192,-495.83657837,0,0,0
1314270750.20095229,-0.00007517,0.00007190,-496.14422607,0,0,0
1314270750.25258446,-0.00007518,0.00007192,-496.45181274,0,0,0
1314270750.30058670,-0.00007517,0.00007190,-496.75949097,0,0,0
1314270750.34982204,-0.00007519,0.00007192,-497.06713867,0,0,0
1314270750.40097237,-0.00007517,0.00007190,-497.37490845,0,0,0
1314270750.45349598,-0.00007519,0.00007192,-497.68261719,0,0,0
1314270750.50308728,-0.00007517,0.00007190,-497.99041748,0,0,0
1314270750.55259466,-0.00007519,0.00007191,-498.29812622,0,0,0
1314270750.60050368,-0.00007518,0.00007189,-498.60601807,0,0,0
1314270750.65243578,-0.00007519,0.00007191,-498.91378784,0,0,0
1314270750.70050883,-0.00007518,0.00007189,-499.22167969,0,0,0
1314270750.75245142,-0.00007519,0.00007191,-499.52951050,0,0,0
1314270750.80148149,-0.00007518,0.00007189,-499.83746338,0,0,0
1314270750.85249662,-0.00007520,0.00007191,-500.14535522,0,0,0
1314270750.90318727,-0.00007518,0.00007189,-500.45339966,0,0,0
1314270750.95259881,-0.00007520,0.00007190,-500.76135254,0,0,0
1314270751.00153565,-0.00007518,0.00007189,-501.06942749,0,0,0
1314270751.04957366,-0.00007520,0.00007190,-501.37747192,0,0,0
1314270751.10160637,-0.00007519,0.00007188,-501.68563843,0,0,0
1314270751.15355492,-0.00007520,0.00007190,-501.99371338,0,0,0
1314270751.20148063,-0.00007519,0.00007188,-502.30187988,0,0,0
1314270751.25246000,-0.00007520,0.00007190,-502.61001587,0,0,0
1314270751.30160117,-0.00007519,0.00007188,-502.91827393,0,0,0
1314270751.34944987,-0.00007520,0.00007190,-503.22650146,0,0,0
1314270751.40145898,-0.00007519,0.00007188,-503.53485107,0,0,0
1314270751.45347428,-0.00007521,0.00007189,-503.84307861,0,0,0
1314270751.50144696,-0.00007519,0.00007187,-504.15145874,0,0,0
1314270751.54956746,-0.00007521,0.00007189,-504.45980835,0,0,0
1314270751.60246515,-0.00007519,0.00007187,-504.76828003,0,0,0
1314270751.65249372,-0.00007521,0.00007189,-505.07666016,0,0,0
1314270751.70168519,-0.00007520,0.00007187,-505.38519287,0,0,0
1314270751.74941945,-0.00007521,0.00007189,-505.69366455,0,0,0
1314270751.80056286,-0.00007520,0.00007187,-506.00219727,0,0,0
1314270751.84943342,-0.00007521,0.00007189,-506.31072998,0,0,0
1314270751.90171266,-0.00007520,0.00007186,-506.61941528,0,0,0
1314270751.94949985,-0.00007522,0.00007188,-506.92797852,0,0,0
1314270752.00046825,-0.00007520,0.00007186,-507.23669434,0,0,0
1314270752.04939032,-0.00007522,0.00007188,-507.54537964,0,0,0
1314270752.10449052,-0.00007520,0.00007186,-507.85415649,0,0,0
1314270752.14951468,-0.00007522,0.00007188,-508.16287231,0,0,0
1314270752.20162201,-0.00007521,0.00007186,-508.47174072,0,0,0
1314270752.24948597,-0.00007522,0.00007188,-508.78054810,0,0,0
1314270752.30113935,-0.00007521,0.00007186,-509.08944702,0,0,0
1314270752.35247755,-0.00007522,0.00007188,-509.39831543,0,0,0
1314270752.40148783,-0.00007521,0.00007185,-509.70730591,0,0,0
1314270752.44948983,-0.00007523,0.00007187,-510.01623535,0,0,0
1314270752.50448084,-0.00007521,0.00007185,-510.32528687,0,0,0
1314270752.55246902,-0.00007523,0.00007187,-510.63424683,0,0,0
1314270752.60051775,-0.00007522,0.00007185,-510.94335938,0,0,0
1314270752.65245152,-0.00007523,0.00007187,-511.25241089,0,0,0
1314270752.70148396,-0.00007522,0.00007185,-511.56158447,0,0,0
1314270752.75249052,-0.00007523,0.00007187,-511.87066650,0,0,0
1314270752.80048013,-0.00007522,0.00007184,-512.17980957,0,0,0
1314270752.85361671,-0.00007523,0.00007187,-512.48895264,0,0,0
1314270752.90458822,-0.00007522,0.00007184,-512.79821777,0,0,0
1314270752.95348287,-0.00007524,0.00007186,-513.10736084,0,0,0
1314270753.00047708,-0.00007522,0.00007184,-513.41668701,0,0,0
1314270753.05349112,-0.00007524,0.00007186,-513.72595215,0,0,0
1314270753.10048699,-0.00007523,0.00007184,-514.03533936,0,0,0
1314270753.14960861,-0.00007524,0.00007186,-514.34466553,0,0,0
1314270753.20059752,-0.00007523,0.00007183,-514.65411377,0,0,0
1314270753.24919558,-0.00007524,0.00007186,-514.96350098,0,0,0
1314270753.30287981,-0.00007523,0.00007183,-515.27301025,0,0,0
1314270753.34964085,-0.00007525,0.00007185,-515.58245850,0,0,0
1314270753.40047479,-0.00007523,0.00007183,-515.89202881,0,0,0
1314270753.44047666,-0.00007525,0.00007185,-516.20153809,0,0,0
1314270753.50045991,-0.00007525,0.00007185,-516.44921875,0,0,0
1314270753.54951477,-0.00007525,0.00007185,-516.82080078,0,0,0
1314270753.60050154,-0.00007524,0.00007182,-517.13055420,0,0,0
1314270753.65250921,-0.00007525,0.00007185,-517.44024658,0,0,0
1314270753.70448184,-0.00007524,0.00007182,-517.75000000,0,0,0
1314270753.75247097,-0.00007526,0.00007185,-518.05969238,0,0,0
1314270753.80047822,-0.00007524,0.00007182,-518.36950684,0,0,0
1314270753.85251951,-0.00007526,0.00007184,-518.67932129,0,0,0
1314270753.90048265,-0.00007525,0.00007182,-518.98919678,0,0,0
1314270753.94959259,-0.00007526,0.00007184,-519.29901123,0,0,0
1314270754.00160122,-0.00007525,0.00007181,-519.60900879,0,0,0
1314270754.05247259,-0.00007526,0.00007184,-519.91888428,0,0,0
1314270754.10347390,-0.00007525,0.00007181,-520.22888184,0,0,0
1314270754.15261078,-0.00007527,0.00007184,-520.53881836,0,0,0
1314270754.20047021,-0.00007526,0.00007181,-520.84893799,0,0,0
1314270754.25348735,-0.00007527,0.00007183,-521.15893555,0,0,0
1314270754.30045319,-0.00007526,0.00007180,-521.46905518,0,0,0
1314270754.35344577,-0.00007527,0.00007183,-521.77911377,0,0,0
1314270754.40049577,-0.00007526,0.00007180,-522.08935547,0,0,0
1314270754.45264077,-0.00007527,0.00007183,-522.39947510,0,0,0
1314270754.50440049,-0.00007527,0.00007180,-522.70971680,0,0,0
1314270754.55249977,-0.00007528,0.00007183,-523.01989746,0,0,0
1314270754.60151386,-0.00007527,0.00007180,-523.33026123,0,0,0
1314270754.65242934,-0.00007528,0.00007182,-523.64050293,0,0,0
1314270754.70049071,-0.00007527,0.00007179,-523.95080566,0,0,0
1314270754.75247216,-0.00007528,0.00007182,-524.26110840,0,0,0
1314270754.80069804,-0.00007527,0.00007179,-524.57153320,0,0,0
1314270754.84932446,-0.00007529,0.00007182,-524.88189697,0,0,0
1314270754.90050483,-0.00007528,0.00007179,-525.19238281,0,0,0
1314270754.95249438,-0.00007529,0.00007182,-525.50274658,0,0,0
1314270755.00085187,-0.00007528,0.00007178,-525.81323242,0,0,0
1314270755.05245805,-0.00007529,0.00007181,-526.12371826,0,0,0
1314270755.10151958,-0.00007529,0.00007178,-526.43432617,0,0,0
1314270755.14954925,-0.00007530,0.00007181,-526.74487305,0,0,0
1314270755.20159221,-0.00007529,0.00007178,-527.05554199,0,0,0
1314270755.25355983,-0.00007530,0.00007181,-527.36614990,0,0,0
1314270755.30409670,-0.00007529,0.00007178,-527.67694092,0,0,0
1314270755.35251188,-0.00007530,0.00007181,-527.98760986,0,0,0
1314270755.40067339,-0.00007530,0.00007177,-528.29846191,0,0,0
1314270755.45243263,-0.00007531,0.00007180,-528.60925293,0,0,0
1314270755.50146866,-0.00007530,0.00007177,-528.92016602,0,0,0
1314270755.55244422,-0.00007531,0.00007180,-529.23107910,0,0,0
1314270755.60216188,-0.00007530,0.00007177,-529.54211426,0,0,0
1314270755.64921618,-0.00007531,0.00007180,-529.85302734,0,0,0
1314270755.70446014,-0.00007531,0.00007176,-530.16412354,0,0,0
1314270755.75007343,-0.00007532,0.00007180,-530.47515869,0,0,0
1314270755.80091071,-0.00007531,0.00007176,-530.78631592,0,0,0
1314270755.85245776,-0.00007532,0.00007179,-531.09741211,0,0,0
1314270755.90109754,-0.00007531,0.00007176,-531.40863037,0,0,0
1314270755.94987750,-0.00007533,0.00007179,-531.71984863,0,0,0
1314270756.00054336,-0.00007532,0.00007176,-532.03112793,0,0,0
1314270756.05360222,-0.00007533,0.00007179,-532.34240723,0,0,0
1314270756.10156488,-0.00007532,0.00007175,-532.65380859,0,0,0
1314270756.14951396,-0.00007533,0.00007179,-532.96508789,0,0,0
1314270756.20089793,-0.00007533,0.00007175,-533.27655029,0,0,0
1314270756.25248528,-0.00007534,0.00007179,-533.58795166,0,0,0
1314270756.30048752,-0.00007533,0.00007175,-533.89953613,0,0,0
1314270756.35242081,-0.00007534,0.00007178,-534.21105957,0,0,0
1314270756.40047693,-0.00007533,0.00007174,-534.52264404,0,0,0
1314270756.45344591,-0.00007534,0.00007178,-534.83416748,0,0,0
1314270756.50447392,-0.00007534,0.00007174,-535.14581299,0,0,0
1314270756.55346012,-0.00007535,0.00007178,-535.45733643,0,0,0
1314270756.60149956,-0.00007534,0.00007174,-535.76904297,0,0,0
1314270756.65246081,-0.00007535,0.00007178,-536.08068848,0,0,0
1314270756.70146942,-0.00007535,0.00007173,-536.39245605,0,0,0
1314270756.75245857,-0.00007536,0.00007177,-536.70416260,0,0,0
1314270756.80163121,-0.00007535,0.00007173,-537.01599121,0,0,0
1314270756.85345435,-0.00007536,0.00007177,-537.32775879,0,0,0
1314270756.90161538,-0.00007535,0.00007173,-537.63964844,0,0,0
1314270756.95247245,-0.00007536,0.00007177,-537.95147705,0,0,0
1314270757.00642157,-0.00007536,0.00007173,-538.26342773,0,0,0
1314270757.04055119,-0.00007537,0.00007177,-538.57537842,0,0,0
1314270757.10056949,-0.00007537,0.00007176,-538.82495117,0,0,0
1314270757.14946413,-0.00007537,0.00007176,-539.19946289,0,0,0
1314270757.20048499,-0.00007537,0.00007172,-539.51153564,0,0,0
1314270757.25358891,-0.00007538,0.00007176,-539.82354736,0,0,0
1314270757.30188870,-0.00007537,0.00007172,-540.13574219,0,0,0
1314270757.35248613,-0.00007538,0.00007176,-540.44781494,0,0,0
1314270757.40062499,-0.00007538,0.00007171,-540.76000977,0,0,0
1314270757.45247436,-0.00007539,0.00007175,-541.07220459,0,0,0
1314270757.50068569,-0.00007538,0.00007171,-541.38446045,0,0,0
1314270757.54978085,-0.00007539,0.00007175,-541.69671631,0,0,0
1314270757.60049105,-0.00007538,0.00007171,-542.00909424,0,0,0
1314270757.65347314,-0.00007539,0.00007175,-542.32135010,0,0,0
1314270757.70452094,-0.00007539,0.00007170,-542.63378906,0,0,0
1314270757.75245523,-0.00007540,0.00007175,-542.94616699,0,0,0
1314270757.80049753,-0.00007539,0.00007170,-543.25866699,0,0,0
1314270757.85433722,-0.00007540,0.00007174,-543.57110596,0,0,0
1314270757.90057421,-0.00007540,0.00007170,-543.88366699,0,0,0
1314270757.94983387,-0.00007541,0.00007174,-544.19622803,0,0,0
1314270758.00047874,-0.00007540,0.00007169,-544.50878906,0,0,0
1314270758.05360508,-0.00007541,0.00007174,-544.82141113,0,0,0
1314270758.10155344,-0.00007541,0.00007169,-545.13409424,0,0,0
1314270758.15359378,-0.00007541,0.00007174,-545.44671631,0,0,0
1314270758.20085454,-0.00007541,0.00007169,-545.75946045,0,0,0
1314270758.25244093,-0.00007542,0.00007173,-546.07214355,0,0,0
1314270758.30160666,-0.00007541,0.00007168,-546.38500977,0,0,0
1314270758.35245681,-0.00007542,0.00007173,-546.69775391,0,0,0
1314270758.40046811,-0.00007542,0.00007168,-547.01068115,0,0,0
1314270758.44917989,-0.00007543,0.00007173,-547.32354736,0,0,0
1314270758.50447392,-0.00007542,0.00007168,-547.63647461,0,0,0
1314270758.54913616,-0.00007543,0.00007173,-547.94940186,0,0,0
1314270758.60057259,-0.00007543,0.00007167,-548.26245117,0,0,0
1314270758.65246964,-0.00007544,0.00007172,-548.57543945,0,0,0
1314270758.70160365,-0.00007543,0.00007167,-548.88854980,0,0,0
1314270758.75249600,-0.00007544,0.00007172,-549.20159912,0,0,0
1314270758.80159736,-0.00007544,0.00007167,-549.51477051,0,0,0
1314270758.85246801,-0.00007545,0.00007172,-549.82788086,0,0,0
1314270758.90055776,-0.00007544,0.00007166,-550.14117432,0,0,0
1314270758.94949985,-0.00007545,0.00007172,-550.45434570,0,0,0
1314270759.00152969,-0.00007545,0.00007166,-550.76763916,0,0,0
1314270759.05348802,-0.00007546,0.00007171,-551.08093262,0,0,0
1314270759.10059023,-0.00007545,0.00007166,-551.39428711,0,0,0
1314270759.14991331,-0.00007546,0.00007171,-551.70764160,0,0,0
1314270759.20158005,-0.00007546,0.00007165,-552.02105713,0,0,0
1314270759.24958515,-0.00007546,0.00007171,-552.33441162,0,0,0
1314270759.30047321,-0.00007546,0.00007165,-552.64788818,0,0,0
1314270759.35245657,-0.00007547,0.00007170,-552.96130371,0,0,0
1314270759.40052295,-0.00007547,0.00007165,-553.27484131,0,0,0
1314270759.45245886,-0.00007547,0.00007170,-553.58831787,0,0,0
1314270759.50086617,-0.00007547,0.00007164,-553.90191650,0,0,0
1314270759.54977107,-0.00007548,0.00007170,-554.21551514,0,0,0
1314270759.60053205,-0.00007548,0.00007164,-554.52917480,0,0,0
1314270759.64964294,-0.00007548,0.00007170,-554.84271240,0,0,0
1314270759.70456815,-0.00007548,0.00007164,-555.15643311,0,0,0
1314270759.74968910,-0.00007549,0.00007169,-555.47003174,0,0,0
1314270759.80047035,-0.00007549,0.00007163,-555.78375244,0,0,0
1314270759.84165955,-0.00007550,0.00007169,-556.09747314,0,0,0
1314270759.90054440,-0.00007550,0.00007169,-556.34851074,0,0,0
1314270759.94962358,-0.00007550,0.00007169,-556.72503662,0,0,0
1314270760.00163150,-0.00007550,0.00007163,-557.03894043,0,0,0
1314270760.05245423,-0.00007551,0.00007168,-557.35272217,0,0,0
1314270760.10363102,-0.00007550,0.00007162,-557.66668701,0,0,0
1314270760.14958906,-0.00007551,0.00007168,-557.98059082,0,0,0
1314270760.20161796,-0.00007551,0.00007162,-558.29461670,0,0,0
1314270760.25250983,-0.00007552,0.00007168,-558.60858154,0,0,0
1314270760.30047250,-0.00007551,0.00007162,-558.92260742,0,0,0
1314270760.35246158,-0.00007552,0.00007168,-559.23663330,0,0,0
1314270760.39247990,-0.00007552,0.00007161,-559.55078125,0,0,0
1314270760.45360231,-0.00007552,0.00007161,-559.80200195,0,0,0
1314270760.50214243,-0.00007552,0.00007161,-560.17901611,0,0,0
1314270760.54952550,-0.00007553,0.00007167,-560.49316406,0,0,0
1314270760.60151672,-0.00007553,0.00007161,-560.80743408,0,0,0
1314270760.65245652,-0.00007554,0.00007167,-561.12164307,0,0,0
1314270760.70049787,-0.00007553,0.00007160,-561.43597412,0,0,0
1314270760.75242901,-0.00007554,0.00007166,-561.75030518,0,0,0
1314270760.80151868,-0.00007554,0.00007160,-562.06475830,0,0,0
1314270760.84951591,-0.00007555,0.00007166,-562.37908936,0,0,0
1314270760.90224290,-0.00007555,0.00007159,-562.69354248,0,0,0
1314270760.94959641,-0.00007555,0.00007166,-563.00793457,0,0,0
1314270761.00162673,-0.00007555,0.00007159,-563.32250977,0,0,0
1314270761.05348182,-0.00007556,0.00007165,-563.63696289,0,0,0
1314270761.10080600,-0.00007556,0.00007159,-563.95153809,0,0,0
1314270761.15246081,-0.00007557,0.00007165,-564.26611328,0,0,0
